Theta_e
313 314 316 314 310 310 309 311 311 311 309 311 309 310 310 311 310 311 312 313 313 313 314 315 317 324 327 330 329 329 330 329 331 332 331 330 324 331 334 333 331 328 327 326
311 315 313 312 310 310 311 310 310 310 311 310 310 310 309 310 310 311 313 312 313 313 313 313 315 318 324 328 330 329 330 329 329 329 328 328 328 323 332 332 329 328 327 327
310 311 313 311 310 311 310 309 309 311 310 309 309 307 308 309 311 312 313 313 313 313 314 313 313 313 318 326 330 329 329 330 330 330 330 331 331 329 326 328 327 328 328 328
308 309 310 310 310 310 311 308 309 309 308 309 307 307 304 304 306 308 312 313 314 313 314 313 313 313 314 319 325 327 329 331 331 332 332 332 330 328 325 323 324 327 327 327
309 308 309 310 311 309 311 309 309 308 308 307 308 305 304 306 307 305 308 312 313 313 313 314 313 313 314 315 316 320 324 326 327 328 331 331 332 331 330 328 326 326 326 325
308 308 308 309 309 309 308 308 308 306 305 308 306 305 305 305 308 309 308 310 312 312 313 312 312 312 312 312 312 312 311 311 313 318 323 326 330 331 328 327 325 324 325 325
308 308 307 308 309 309 309 307 308 308 308 307 305 304 306 305 305 306 308 309 310 311 312 312 312 312 312 312 312 311 311 311 310 310 312 318 323 326 326 325 324 323 324 324
307 309 307 307 308 308 308 308 309 309 308 306 305 307 307 306 307 309 309 310 311 312 312 312 312 311 311 311 311 312 312 312 310 309 309 310 314 320 323 325 325 323 323 323
307 308 307 307 308 308 309 309 308 308 301 308 306 305 306 305 307 308 309 311 311 311 311 311 311 311 311 311 312 314 314 314 311 310 310 309 311 317 326 323 324 323 321 322
307 309 308 307 308 308 308 307 310 308 309 307 305 306 306 307 307 308 308 310 311 311 311 311 311 311 311 311 312 313 314 314 314 312 312 313 315 320 326 321 320 320 320 320
307 308 309 307 308 308 307 307 307 309 308 308 307 306 304 306 307 306 309 311 311 311 311 311 311 311 311 311 312 312 313 314 314 314 314 314 315 318 323 320 318 318 318 318
308 308 308 308 307 307 307 307 307 309 308 307 307 306 305 305 308 307 307 311 311 311 311 311 311 311 311 311 311 311 312 313 314 315 315 315 316 320 320 317 318 317 318 317
308 307 308 310 308 307 308 307 307 306 306 308 308 306 305 307 308 307 307 308 310 311 311 310 310 310 310 310 311 311 311 312 313 314 315 315 316 316 317 317 316 315 312 309
309 308 308 308 308 308 309 308 307 307 308 307 306 307 306 308 308 308 308 308 310 311 311 310 310 310 310 310 310 310 310 311 311 312 313 313 313 313 312 310 308 307 305 304
309 305 305 308 307 307 307 308 308 308 309 308 309 307 306 307 306 309 310 310 310 310 310 310 310 310 310 309 309 309 309 309 309 310 310 310 309 308 307 306 304 301 299 298
305 302 305 305 307 308 308 307 307 308 308 308 306 306 305 308 308 310 311 311 311 311 311 310 310 309 309 309 309 309 309 309 308 308 308 308 307 304 303 301 298 297 296 296
306 303 301 303 304 305 309 307 307 307 307 307 307 308 305 305 306 309 311 311 312 312 311 311 310 310 309 309 309 308 308 307 307 306 306 305 302 300 298 297 296 296 296 296
302 302 299 299 298 306 307 305 307 307 306 306 306 306 305 307 310 310 310 311 311 311 311 310 310 310 309 308 307 307 306 306 305 304 303 300 298 297 296 296 296 296 295 295
305 304 303 306 295 303 306 306 304 306 308 306 306 305 307 308 308 308 309 309 310 310 311 311 310 310 309 308 307 305 305 304 303 302 299 297 297 296 296 296 295 294 293 293
306 305 307 300 300 303 304 305 305 306 307 301 306 305 305 306 305 306 309 309 310 310 310 310 310 309 308 307 306 305 304 302 301 298 297 296 296 295 294 294 293 293 292 292
308 307 308 298 299 301 302 305 306 308 307 302 306 305 305 303 306 307 308 308 309 309 310 310 310 309 308 306 305 303 302 300 298 296 296 295 295 294 293 293 294 292 293 294
309 309 306 300 301 309 303 304 307 306 302 306 307 307 306 306 307 307 308 308 309 309 309 309 309 308 306 305 304 302 300 298 296 295 296 296 294 293 292 293 297 298 293 290
310 306 307 308 306 303 303 305 306 304 305 304 304 305 306 306 306 306 306 306 307 307 308 308 307 306 305 303 302 300 298 296 295 297 296 295 292 292 297 298 292 290 289 289
302 302 304 306 304 303 303 304 305 305 304 304 304 305 305 305 305 305 305 305 305 306 306 306 305 304 304 302 299 297 296 295 298 297 295 292 296 298 294 289 289 289 289 288
300 300 300 300 301 302 302 304 305 305 305 305 304 304 304 304 304 304 304 304 304 305 305 304 304 303 302 299 296 295 296 297 297 293 296 300 298 291 289 289 288 288 288 288
296 299 303 303 303 303 303 305 305 304 304 304 304 304 303 303 303 303 303 303 303 303 303 302 302 301 300 297 295 296 297 296 294 300 299 294 289 289 288 288 288 287 287 287
Wind_Speed
12 8 19 16 2 3 4 5 6 4 4 6 9 8 8 12 17 20 24 25 26 28 24 24 24 27 28 30 26 24 25 23 23 25 24 24 23 26 27 27 26 25 24 22
4 22 12 9 6 6 4 4 6 1 2 4 3 10 8 7 12 27 29 27 25 23 23 28 27 29 29 30 29 26 26 24 24 24 23 23 21 23 25 24 25 25 25 24
8 6 19 12 7 11 6 6 4 3 3 2 2 7 6 8 25 24 27 26 23 24 23 26 27 27 29 29 30 28 28 27 25 25 23 23 22 21 20 23 24 24 23 23
5 8 22 8 15 12 13 5 6 7 6 5 3 5 6 6 10 12 32 30 28 24 24 25 27 30 29 30 30 31 31 31 31 30 29 28 27 24 20 19 19 22 23 24
7 9 15 16 10 9 8 5 8 5 5 5 1 1 7 2 6 10 25 39 33 25 25 25 27 30 31 30 29 31 31 32 32 33 33 31 30 25 18 17 17 20 21 23
5 3 9 10 4 9 6 6 5 4 3 1 5 6 5 5 7 4 7 23 26 24 20 25 29 29 28 27 26 27 29 33 35 35 33 30 29 24 21 19 19 18 17 17
3 3 1 4 6 2 7 5 1 1 1 5 1 3 8 6 7 6 7 14 21 24 25 25 26 25 23 23 23 24 24 25 29 33 34 31 25 21 20 19 15 15 15 15
6 4 6 4 6 8 4 7 5 6 4 3 3 6 6 7 4 15 13 14 22 23 22 21 21 21 21 20 19 17 16 17 20 22 26 29 26 22 18 18 18 14 15 15
6 4 3 1 1 5 4 6 4 6 3 3 4 6 9 6 3 2 13 21 23 22 21 19 19 17 16 14 14 13 13 13 14 17 18 20 20 19 21 18 17 17 15 17
6 4 1 1 2 2 6 8 3 2 5 3 4 5 6 6 9 6 9 20 22 20 19 18 17 16 15 14 14 12 11 12 12 13 14 16 18 20 22 16 14 15 14 15
4 4 2 2 5 8 3 3 1 5 4 6 2 6 7 8 9 12 18 27 24 22 20 18 16 15 15 15 14 13 12 11 12 13 15 16 17 19 24 17 13 12 12 13
3 5 4 5 1 1 0 5 5 7 7 2 4 6 1 5 4 14 21 26 21 21 20 19 18 17 16 14 13 13 14 14 12 12 13 15 18 21 21 15 14 13 12 12
7 1 4 3 3 1 5 4 3 5 3 6 5 5 1 4 5 5 17 24 24 24 22 21 20 18 17 16 16 15 15 14 14 14 13 14 14 15 16 15 15 14 13 12
13 4 7 10 6 7 6 6 5 5 3 4 7 6 5 6 6 5 12 22 26 27 24 22 21 20 18 18 17 17 17 16 16 15 14 14 15 16 16 16 15 14 12 10
6 5 3 3 3 2 6 13 15 10 17 9 13 10 8 7 7 10 14 20 24 24 24 24 24 23 22 22 20 19 19 18 17 16 17 18 18 18 17 16 15 13 11 9
2 3 2 3 5 1 0 7 13 22 11 17 4 7 6 9 10 13 18 22 25 26 25 26 26 26 26 24 24 23 21 20 19 19 19 19 19 19 17 16 14 12 10 8
8 6 4 5 2 3 5 12 15 11 15 10 13 18 5 3 9 18 21 25 26 25 25 28 29 28 27 26 25 24 23 22 22 21 21 20 20 18 16 15 13 11 8 5
6 7 3 3 2 4 8 4 16 17 9 17 3 4 14 13 19 19 21 23 24 25 26 28 29 29 29 27 26 24 24 24 24 23 22 21 19 18 16 14 11 8 6 5
2 5 4 6 4 5 4 5 7 9 15 11 18 8 12 12 12 20 23 23 24 25 27 28 28 30 30 29 28 27 26 26 25 24 23 21 19 17 14 11 9 6 5 5
3 5 4 3 6 10 1 5 8 7 11 7 17 11 14 14 5 7 14 19 18 23 23 22 25 28 30 30 29 29 29 27 26 25 23 21 19 16 12 9 7 5 6 8
3 2 8 3 4 7 7 2 6 8 6 3 3 9 17 6 10 6 11 13 15 16 18 20 22 26 31 30 29 29 28 27 26 25 23 20 16 13 10 8 6 6 9 13
10 9 5 3 1 13 10 5 9 4 5 8 9 7 11 10 9 8 7 7 9 12 15 18 21 25 29 29 28 29 29 28 26 23 20 17 14 11 9 6 9 13 15 13
5 5 5 10 6 3 17 2 7 7 10 8 9 8 8 10 9 8 7 7 7 10 12 15 19 24 27 27 27 28 29 29 26 22 19 16 13 9 9 11 14 13 13 13
4 4 3 3 4 4 12 7 10 9 8 9 7 5 5 4 6 7 8 8 9 10 13 15 20 25 27 29 29 28 28 27 23 20 17 14 11 11 13 14 14 13 12 13
3 10 6 2 3 2 7 12 13 10 8 7 5 4 4 6 8 10 11 12 12 14 17 19 23 26 27 29 29 29 28 25 22 19 16 13 14 17 18 16 13 13 13 14
6 5 5 4 10 3 4 18 12 10 9 7 6 6 7 9 10 11 12 12 15 17 20 22 24 25 27 29 32 30 26 23 21 18 16 19 21 19 17 15 13 13 13 14
Wind_Direction
169 174 204 209 104 230 149 171 195 222 177 142 202 237 238 200 208 211 212 216 220 223 224 223 221 220 222 222 228 230 232 233 229 232 236 239 243 229 231 233 235 239 242 240
147 212 185 222 222 247 230 206 215 211 112 138 164 249 251 223 233 221 216 220 221 225 222 220 216 217 220 219 223 227 234 238 235 238 244 249 255 258 237 237 237 239 238 243
183 175 198 209 212 218 232 195 225 213 116 72 95 290 247 237 237 244 235 233 230 224 218 215 212 213 215 216 218 225 232 239 242 246 246 248 250 251 240 238 237 239 242 243
217 207 180 175 212 196 229 192 208 157 141 193 164 264 258 241 244 218 234 233 231 223 218 214 213 210 209 214 219 225 227 231 236 242 243 244 251 255 263 263 253 246 247 248
210 163 187 190 196 181 226 149 175 158 136 122 207 111 265 249 249 236 232 231 229 224 223 216 209 206 207 212 219 224 228 233 236 235 238 241 246 254 262 259 250 249 246 247
184 201 171 180 146 174 137 99 60 62 99 213 205 164 268 205 210 252 210 232 224 215 209 206 200 201 207 215 220 227 231 233 235 240 240 237 239 240 247 247 244 245 242 245
136 189 217 138 105 86 157 147 127 90 227 210 101 155 247 263 248 232 202 198 192 196 194 193 199 207 216 230 236 240 239 234 232 232 238 239 233 226 230 244 249 243 240 241
148 203 177 167 182 169 188 161 156 172 185 223 96 225 245 239 275 245 259 208 182 185 194 200 209 217 222 227 228 226 227 227 224 225 228 235 233 224 214 232 236 232 234 235
148 196 338 86 75 159 183 204 145 98 28 74 215 281 295 231 247 158 174 171 180 184 194 199 203 206 207 205 209 208 205 209 209 210 213 223 225 218 208 220 229 228 236 236
186 128 342 321 188 93 173 156 129 356 131 242 271 280 235 237 221 172 176 185 187 189 190 192 198 198 196 194 194 196 196 202 202 202 206 215 216 215 213 209 218 225 228 229
125 101 262 147 213 168 143 193 125 118 149 171 183 258 224 220 198 195 202 195 191 189 192 197 195 192 195 194 195 195 192 196 198 199 200 204 204 207 207 204 206 209 215 220
129 116 146 196 238 292 61 238 164 185 208 199 159 259 182 227 212 216 205 198 196 197 194 197 197 197 197 198 197 195 194 190 192 189 191 193 197 202 213 195 193 193 197 205
175 158 97 39 2 158 197 210 174 108 74 195 153 252 128 274 278 232 202 196 193 191 193 196 199 200 202 201 201 199 196 190 190 187 184 186 180 180 179 181 185 184 184 183
137 160 166 190 193 137 187 188 188 137 160 171 221 228 275 219 204 190 186 188 190 194 197 202 203 204 204 205 205 201 196 191 190 181 182 182 176 174 175 171 175 176 175 179
150 201 134 49 357 118 168 184 187 198 215 194 237 210 231 235 216 198 185 186 191 198 203 207 208 206 204 204 202 199 197 191 185 183 183 181 176 175 176 174 174 177 178 184
121 238 110 12 347 74 306 198 188 220 218 238 347 250 211 202 196 193 192 191 199 207 212 213 212 210 208 206 204 200 198 192 188 189 187 184 181 179 176 176 178 180 185 193
138 130 116 231 334 73 305 207 210 218 218 212 222 239 159 192 196 199 199 208 217 219 220 219 217 214 211 210 208 202 198 195 192 193 189 187 184 181 178 179 181 185 194 211
133 111 94 162 44 199 263 177 207 208 213 214 209 142 186 203 213 219 226 229 236 240 238 231 225 219 213 210 206 204 200 197 195 193 192 188 184 185 185 185 189 198 215 242
46 128 119 148 201 295 243 212 151 176 245 210 224 201 198 207 227 245 241 238 244 250 246 241 233 224 216 211 208 203 200 199 197 196 194 191 189 190 191 194 199 215 242 278
50 70 122 131 164 219 217 191 164 112 264 224 209 191 190 173 205 235 235 241 242 244 248 248 239 225 216 212 209 206 204 201 199 195 193 191 190 191 196 203 212 239 272 294
123 68 201 168 224 284 251 219 151 154 245 135 156 199 176 185 219 226 235 238 242 243 241 237 228 222 216 211 208 206 204 201 197 194 193 192 193 199 205 214 243 270 298 295
169 161 199 113 115 251 174 114 169 202 122 139 130 142 163 191 193 202 205 216 226 234 230 226 221 215 209 209 208 205 202 198 195 193 193 196 201 208 211 238 278 280 272 280
198 188 180 184 206 209 180 175 186 156 150 147 131 128 146 157 172 184 195 206 215 221 227 225 216 207 204 205 207 204 199 195 192 194 198 204 206 214 254 274 264 264 272 279
251 192 178 98 200 204 181 172 162 151 152 142 138 151 175 204 214 220 225 225 229 227 220 216 207 205 204 203 201 200 197 193 195 202 205 205 225 252 251 245 252 262 274 280
195 144 166 293 304 151 206 188 174 164 168 175 187 225 249 249 251 246 245 241 234 231 222 215 212 209 205 200 194 190 195 199 202 201 208 234 241 236 237 239 250 264 270 277
192 172 168 217 184 154 176 202 206 218 217 223 239 249 256 254 255 253 251 250 246 236 224 218 214 211 207 200 194 194 199 204 205 230 234 232 232 234 236 244 254 261 273 286